Simultaneous Nadir Overpasses (SNOs) Predictions

Prediction of SNOs between GOES-14 and AQUA Satellite Orbit:

Table of predicted SNOs for the next 14.0 days since TLE Epoch: 1/18/2019
Index Date Time (GOES-14) GOES-14 Lat,Lon AQUA Lat,Lon Distance(km) Time Diff (sec)
1 01/19/2019 20:32:47 0.02,-104.09 0.06,-103.96 15.08 80
2 01/21/2019 20:20:36 0.01,-104.09 0.66,-101.00 351.48 80
3 01/22/2019 08:41:52 -0.01,-104.34 0.40,-106.16 208.00 80
4 01/24/2019 08:27:02 -0.01,-104.34 -0.26,-103.21 128.58 80
5 01/24/2019 20:48:25 0.02,-104.10 -0.89,-108.39 488.71 80
6 01/26/2019 08:14:51 -0.02,-104.35 -0.87,-100.25 465.44 80
7 01/26/2019 20:36:14 0.02,-104.10 -0.29,-105.43 151.76 80
8 01/28/2019 20:26:45 0.01,-104.11 0.37,-102.48 185.56 80
9 01/29/2019 08:45:20 -0.01,-104.36 0.68,-107.65 373.39 80
10 01/31/2019 08:33:09 0.00,-104.37 0.07,-104.69 35.84 80




NCC Satellite Simultaneous Nadir Overpasses (SNOs) Prediction Service
